Preview of NWS' New Version of Forecast
This preview is not operational and should not be used for support decisions.

Regional Weather Roundup (RWR)

Issued by National Weather Service (NWS)

                            
000
ASUS44 KMEG 181810
RWRTN 
TENNESSEE HOURLY STATE WEATHER ROUNDUP
NATIONAL WEATHER SERVICE MEMPHIS TN
100 PM CDT SAT MAY 18 2019

TNZ002-004-019-021-049-052-054-088>092-181900-
WEST TENNESSEE
  
CITY           SKY/WX    TMP DP  RH WIND       PRES   REMARKS
MEMPHIS INTL   FAIR      84  65  52 S13       29.90F                  
NWS MEMPHIS      N/A     86 N/A N/A MISG        N/A                   
JACKSON        FAIR      84  61  45 S18G26    29.93F                  
DYERSBURG      FAIR      85  61  44 S13G21    29.90F                  
SOMERVILLE     SUNNY     84  63  48 S14G21    29.91F                  
COVINGTON      SUNNY     84  63  48 S12G23    29.90F                  
UNION CITY     SUNNY     84  63  48 S15G25    29.89S                  
BOLIVAR        SUNNY     84  61  45 SE17G23   29.92F                  
PARIS          MOSUNNY   86  64  48 S15       29.92S                  
HUNTINGDON     MOSUNNY   84  63  48 S20       29.92F                  
LEXINGTON      SUNNY     84  64  51 S12       29.93F                  
SELMER         SUNNY     82  61  47 S10G20    29.94F                  
SAVANNAH       SUNNY     84  64  51 S16G25    29.94F                  
$$

TNZ008-025-027-028-033-062-065-066-181900-
NORTH MIDDLE TENNESSEE
  
CITY           SKY/WX    TMP DP  RH WIND       PRES   REMARKS
NASHVILLE      PTSUNNY   88  62  41 S15G22    29.96F                  
DICKSON        PTCLDY    84  64  51 S17G24    29.95S                  
PORTLAND       MOSUNNY   84  66  54 S12       29.95F                  
CLARKSVILLE    FAIR      86  60  41 S17       29.93F                  
LEBANON        PTCLDY    88  63  42 SW13      29.94F                  
SMYRNA         FAIR      85  67  54 S13       29.97F                  
MURFREESBORO   PTCLDY    86  63  45 S10G16    29.95F                  
COOKEVILLE     PTSUNNY   84  66  54 S8        29.99F                  
LIVINGSTON     PTCLDY    84  64  51 VRB7      29.99F                  
CROSSVILLE     FAIR      80  61  52 VRB6      30.05F                  
ROCKWOOD       CLEAR     82  64  54 VRB6G15   30.04F                  
$$

TNZ061-075-076-078-094-096-097-181900-
SOUTH MIDDLE TENNESSEE
  
CITY           SKY/WX    TMP DP  RH WIND       PRES   REMARKS
LAWRENCEBURG   PTCLDY    84  63  48 S8G18     29.98F                  
LEWISBURG      PTCLDY    84  66  54 S9G16     29.97S                  
FAYETTEVILLE   MOSUNNY   84  64  51 S13       29.99F                  
TULLAHOMA      SUNNY     84  64  51 SE10G17   29.99F                  
WINCHESTER     MOSUNNY   84  64  51 S10       30.00F                  
MCMINNVILLE    SUNNY     84  64  51 SW7       29.99F                  
COLUMBIA       MOSUNNY   84  64  51 S8G18     29.95F                  
SHELBYVILLE    MOSUNNY   84  66  54 S12       29.98F                  
$$

TNZ017-018-042-046-047-181900-
NORTHEAST TENNESSEE
  
CITY           SKY/WX    TMP DP  RH WIND       PRES   REMARKS
TRI CITIES     FAIR      84  59  42 VRB5      30.05F                  
ELIZABETHTON   FAIR      84  59  42 CALM      30.05F                  
GREENEVILLE    PTCLDY    82  63  51 W6        30.05F                  
$$

TNZ012-013-036-069-073-074-181900-
CENTRAL EAST TENNESSEE
  
CITY           SKY/WX    TMP DP  RH WIND       PRES   REMARKS
KNOXVILLE      FAIR      85  64  49 VRB3      30.00F                  
OAK RIDGE      FAIR      86  63  45 CALM      30.02F                  
DOWNTOWN KNOXV SUNNY     86  64  48 CALM      30.01F                  
GATLINBURG     SUNNY     84  64  51 VRB3      30.01F                  
MORRISTOWN     SUNNY     82  64  54 CALM      30.02F                  
JACKSBORO      MOSUNNY   84  64  51 VRB6      30.04F                  
$$

TNZ083-085-099-181900-
SOUTHEAST TENNESSEE
  
CITY           SKY/WX    TMP DP  RH WIND       PRES   REMARKS
CHATTANOOGA    FAIR      87  66  49 VRB6      30.00F                  
DAYTON         CLEAR     86  66  51 S7        29.99F                  
$$

SKY/WX REPORTED AS FAIR MEANS FEW OR NO CLOUDS BELOW
12 THOUSAND FEET.